Location: Hurstbourne Priors
(51.2000°N, 1.3667°W)
Time: 13:48:43
(UTC+00:00)

deb Explorer IX - Visible Passes

Search period start: 23 April 2021 00:00
Search period end: 03 May 2021 00:00
Orbit: 541 x 1099 km, 38.8° (Epoch: 22 April)

Date Brightness Start Highest point End Pass type
(mag) Time Alt. Az. Time Alt. Az. Time Alt. Az.
30 Apr ? 03:46:53 10° SSW 03:48:36 12° SSE 03:50:19 10° SE visible
01 May ? 03:23:06 10° SSW 03:24:57 13° SSE 03:26:45 10° SE visible
02 May ? 03:00:24 12° S 03:01:18 13° S 03:03:13 10° SE visible
